Location: Goettingen
(51.5300°N, 9.9433°E)
Time: 07:25:04
(UTC+02:00)

ISS - Pass Details

Date: 12 May 2021
Orbit: 417 x 422 km, 51.6° (Epoch: 18 May)

Event Time Altitude Azimuth Distance (km) Brightness Sun altitude
Rises 04:24:38 0° 283° (WNW) 2,371 -0.2 -9.1°
Reaches altitude 10° 04:26:45 10° 279° (W) 1,506 -1.3 -8.9°
Maximum altitude 04:30:03 53° 202° (SSW) 523 -3.6 -8.5°
Drops below altitude 10° 04:33:21 10° 124° (SE) 1,503 -0.8 -8.2°
Sets 04:35:29 0° 119° (ESE) 2,366 0.3 -7.9°
